| time (UTC) | temp F | wind direction | speed knots | gust knots | rain 1hr in | rain 24hr in | rain mn in | humidity % | barometer mb |
| 20260507062617 | 52 | 0.0 | 0.9 | 0.00 | 0.00 | 0.00 | 81 | 1020.2 | |
| 20260507061638 | 52 | 0.0 | 0.0 | 0.00 | 0.00 | 0.00 | 82 | 1020.2 | |
| 20260507060617 | 52 | 0.0 | 0.9 | 0.00 | 0.00 | 0.00 | 82 | 1020.2 | |
| 20260507055637 | 52 | 225 | 0.9 | 2.6 | 0.00 | 0.00 | 0.00 | 82 | 1020.1 |
| 20260507054637 | 52 | 225 | 2.6 | 4.3 | 0.00 | 0.00 | 0.00 | 83 | 1020.2 |
| 20260507053617 | 53 | 225 | 0.9 | 1.7 | 0.00 | 0.00 | 0.00 | 84 | 1020.2 |
| 20260507052637 | 53 | 0.0 | 1.7 | 0.00 | 0.00 | 0.00 | 85 | 1020.2 | |
| 20260507051617 | 53 | 0.0 | 0.0 | 0.00 | 0.00 | 0.00 | 86 | 1020.3 | |
| 20260507050616 | 53 | 225 | 0.9 | 2.6 | 0.00 | 0.00 | 0.00 | 86 | 1020.2 |
| 20260507045616 | 54 | 0.0 | 0.0 | 0.00 | 0.00 | 0.00 | 85 | 1020.3 | |
| 20260507044619 | 54 | 0.0 | 1.7 | 0.00 | 0.00 | 0.00 | 85 | 1020.2 | |
| 20260507043617 | 54 | 0.0 | 0.0 | 0.00 | 0.00 | 0.00 | 84 | 1020.2 | |
| 20260507042617 | 55 | 225 | 0.9 | 2.6 | 0.00 | 0.00 | 0.00 | 83 | 1020.1 |
| 20260507041617 | 55 | 0.0 | 0.9 | 0.00 | 0.00 | 0.00 | 83 | 1020.1 | |
| 20260507040617 | 55 | 0.0 | 0.0 | 0.00 | 0.00 | 0.00 | 83 | 1020.1 | |
| 20260507035616 | 55 | 0.0 | 0.0 | 0.00 | 0.00 | 0.00 | 82 | 1020.0 | |
| 20260507034616 | 55 | 0.0 | 0.0 | 0.00 | 0.00 | 0.00 | 82 | 1019.9 | |
| 20260507033617 | 55 | 0.0 | 0.0 | 0.00 | 0.00 | 0.00 | 82 | 1019.8 | |
| 20260507032617 | 55 | 338 | 0.9 | 2.6 | 0.00 | 0.00 | 0.00 | 81 | 1019.7 |
| 20260507031616 | 55 | 0.0 | 0.0 | 0.00 | 0.00 | 0.00 | 81 | 1019.6 | |
| 20260507030617 | 56 | 0.0 | 0.0 | 0.00 | 0.00 | 0.00 | 81 | 1019.6 | |
| 20260507025617 | 56 | 0.0 | 0.0 | 0.00 | 0.00 | 0.00 | 80 | 1019.5 | |
| 20260507024616 | 56 | 225 | 1.7 | 1.7 | 0.00 | 0.00 | 0.00 | 80 | 1019.5 |
| 20260507023617 | 56 | 0 | 0.9 | 4.3 | 0.00 | 0.00 | 0.00 | 80 | 1019.5 |
| 20260507022617 | 56 | 0.0 | 0.9 | 0.00 | 0.00 | 0.00 | 79 | ||
| 20260507021617 | 57 | 225 | 0.9 | 3.5 | 0.00 | 0.00 | 0.00 | 79 | |
| 20260507020616 | 57 | 0.0 | 0.9 | 0.00 | 0.00 | 0.00 | 78 | ||
| 20260507015616 | 57 | 0.0 | 0.9 | 0.00 | 0.00 | 0.00 | 78 | ||
| 20260507014616 | 57 | 225 | 0.9 | 0.9 | 0.00 | 0.00 | 0.00 | 78 | |
| 20260507013636 | 57 | 0.0 | 0.9 | 0.00 | 0.00 | 0.00 | 77 | ||
| 20260507012616 | 57 | 225 | 0.9 | 2.6 | 0.00 | 0.00 | 0.00 | 77 | |
| 20260507011636 | 57 | 225 | 0.9 | 2.6 | 0.00 | 0.00 | 0.00 | 77 | |
| 20260507010617 | 58 | 225 | 0.9 | 1.7 | 0.00 | 0.00 | 0.00 | 78 | |
| 20260507005616 | 58 | 0.0 | 1.7 | 0.00 | 0.00 | 0.00 | 78 | ||
| 20260507004636 | 58 | 315 | 0.9 | 1.7 | 0.00 | 0.00 | 0.00 | 77 | |
| 20260507003616 | 58 | 0.0 | 1.7 | 0.00 | 0.00 | 0.00 | 77 | ||
| 20260507002617 | 58 | 338 | 0.9 | 2.6 | 0.00 | 0.00 | 0.00 | 77 | 1019.5 |
| 20260507001616 | 58 | 0.0 | 0.9 | 0.00 | 0.00 | 0.00 | 76 | 1019.4 | |
| 20260507000616 | 58 | 0.0 | 0.9 | 0.00 | 0.00 | 0.00 | 76 | 1019.4 | |
| 20260506235616 | 58 | 225 | 0.9 | 2.6 | 0.00 | 0.00 | 0.00 | 75 | 1019.4 |
| 20260506234616 | 58 | 0.0 | 0.9 | 0.00 | 0.00 | 0.00 | 75 | 1019.5 | |
| 20260506233616 | 59 | 0.0 | 0.9 | 0.00 | 0.00 | 0.00 | 75 | 1019.5 | |
| 20260506232636 | 59 | 90 | 0.9 | 1.7 | 0.00 | 0.00 | 0.00 | 74 | 1019.5 |
| 20260506231616 | 59 | 225 | 0.9 | 2.6 | 0.00 | 0.00 | 0.00 | 73 | 1019.5 |
| 20260506230616 | 59 | 23 | 0.9 | 2.6 | 0.00 | 0.00 | 0.00 | 74 | 1019.5 |
| 20260506225636 | 59 | 225 | 0.9 | 1.7 | 0.00 | 0.00 | 0.00 | 74 | 1019.6 |
| 20260506224616 | 59 | 225 | 0.9 | 3.5 | 0.00 | 0.00 | 0.00 | 75 | 1019.6 |
| 20260506223616 | 59 | 225 | 0.9 | 3.5 | 0.00 | 0.00 | 0.00 | 75 | 1019.7 |
| 20260506222616 | 59 | 225 | 1.7 | 3.5 | 0.00 | 0.00 | 0.00 | 75 | 1019.7 |
| 20260506221636 | 59 | 158 | 1.7 | 1.7 | 0.00 | 0.00 | 0.00 | 75 | 1019.8 |
| 20260506220616 | 58 | 225 | 0.9 | 2.6 | 0.00 | 0.00 | 0.00 | 77 | 1019.8 |
| 20260506215616 | 57 | 225 | 2.6 | 4.3 | 0.00 | 0.00 | 0.00 | 77 | 1019.9 |
| 20260506214616 | 57 | 338 | 0.9 | 3.5 | 0.00 | 0.00 | 0.00 | 77 | 1019.9 |
| 20260506213636 | 57 | 225 | 0.9 | 3.5 | 0.00 | 0.00 | 0.00 | 78 | 1019.9 |
| 20260506212616 | 57 | 0.0 | 0.9 | 0.00 | 0.00 | 0.00 | 78 | 1019.9 | |
| 20260506211616 | 57 | 0.0 | 0.9 | 0.00 | 0.00 | 0.00 | 78 | 1019.9 | |
| 20260506210616 | 57 | 338 | 1.7 | 3.5 | 0.00 | 0.00 | 0.00 | 77 | 1019.9 |
| 20260506205616 | 57 | 0 | 0.9 | 2.6 | 0.00 | 0.00 | 0.00 | 77 | 1019.9 |
| 20260506204616 | 57 | 0.0 | 0.9 | 0.00 | 0.00 | 0.00 | 78 | 1019.9 | |
| 20260506203616 | 57 | 225 | 0.9 | 1.7 | 0.00 | 0.00 | 0.00 | 78 | 1019.8 |
| 20260506202616 | 57 | 0.0 | 0.9 | 0.00 | 0.00 | 0.00 | 77 | 1019.8 | |
| 20260506201617 | 57 | 0.0 | 0.9 | 0.00 | 0.00 | 0.00 | 79 | 1019.7 | |
| 20260506200616 | 57 | 0.0 | 0.9 | 0.00 | 0.00 | 0.00 | 79 | 1019.6 | |
| 20260506195615 | 57 | 0.0 | 0.0 | 0.00 | 0.00 | 0.00 | 79 | 1019.6 | |
| 20260506194616 | 57 | 315 | 0.9 | 2.6 | 0.00 | 0.00 | 0.00 | 79 | 1019.5 |
| 20260506193615 | 57 | 248 | 0.9 | 2.6 | 0.00 | 0.00 | 0.00 | 80 | 1019.4 |
| 20260506192616 | 56 | 225 | 2.6 | 4.3 | 0.00 | 0.00 | 0.00 | 81 | 1019.4 |
| 20260506191616 | 56 | 225 | 0.9 | 5.2 | 0.00 | 0.00 | 0.00 | 82 | 1019.4 |
| 20260506190616 | 56 | 225 | 0.9 | 1.7 | 0.00 | 0.00 | 0.00 | 82 | 1019.4 |
| 20260506185636 | 55 | 225 | 0.9 | 2.6 | 0.00 | 0.00 | 0.00 | 83 | 1019.4 |
| 20260506184616 | 55 | 0.0 | 0.0 | 0.00 | 0.00 | 0.00 | 83 | 1019.5 | |
| 20260506183616 | 55 | 270 | 0.9 | 1.7 | 0.00 | 0.00 | 0.00 | 83 | 1019.6 |
| 20260506182616 | 55 | 338 | 0.9 | 1.7 | 0.00 | 0.00 | 0.00 | 84 | 1019.5 |
| 20260506181616 | 55 | 0.0 | 0.9 | 0.00 | 0.00 | 0.00 | 84 | 1019.1 | |
| 20260506180616 | 55 | 0.0 | 0.9 | 0.00 | 0.00 | 0.00 | 85 | 1019.2 | |
| 20260506175635 | 55 | 0.0 | 0.0 | 0.00 | 0.00 | 0.00 | 85 | 1019.2 | |
| 20260506174616 | 54 | 225 | 0.9 | 1.7 | 0.00 | 0.00 | 0.00 | 85 | 1019.3 |
| 20260506173615 | 55 | 315 | 0.9 | 2.6 | 0.00 | 0.00 | 0.00 | 85 | 1019.2 |
| 20260506172616 | 55 | 0.0 | 0.9 | 0.00 | 0.00 | 0.00 | 85 | 1019.3 | |
| 20260506171615 | 55 | 0.0 | 2.6 | 0.00 | 0.00 | 0.00 | 85 | 1019.3 | |
| 20260506170635 | 55 | 0.0 | 0.0 | 0.00 | 0.00 | 0.00 | 85 | 1019.3 | |
| 20260506165618 | 54 | 225 | 0.9 | 3.5 | 0.00 | 0.00 | 0.00 | 86 | 1019.2 |
| 20260506164615 | 54 | 0.0 | 0.0 | 0.00 | 0.00 | 0.00 | 86 | 1019.2 | |
| 20260506163615 | 54 | 0.0 | 1.7 | 0.00 | 0.00 | 0.00 | 85 | 1018.9 | |
| 20260506162618 | 54 | 225 | 1.7 | 2.6 | 0.00 | 0.00 | 0.00 | 85 | 1018.8 |
| 20260506161615 | 53 | 0.0 | 0.0 | 0.00 | 0.00 | 0.00 | 83 | 1018.7 | |
| 20260506160617 | 53 | 0.0 | 0.9 | 0.00 | 0.00 | 0.00 | 82 | 1018.7 | |
| 20260506155615 | 53 | 225 | 0.9 | 2.6 | 0.00 | 0.00 | 0.00 | 83 | 1019.0 |
| 20260506154617 | 53 | 0.0 | 0.0 | 0.00 | 0.00 | 0.00 | 82 | 1019.1 | |
| 20260506153619 | 53 | 0.0 | 0.0 | 0.00 | 0.00 | 0.00 | 82 | 1019.1 | |
| 20260506152618 | 53 | 0.0 | 0.9 | 0.00 | 0.00 | 0.00 | 83 | 1018.8 | |
| 20260506151617 | 53 | 0.0 | 0.9 | 0.00 | 0.00 | 0.00 | 84 | 1018.7 | |
| 20260506150618 | 53 | 225 | 0.9 | 2.6 | 0.00 | 0.00 | 0.00 | 84 | 1018.9 |
| 20260506145618 | 53 | 0.0 | 0.9 | 0.00 | 0.00 | 0.00 | 84 | 1018.9 | |
| 20260506144618 | 53 | 0.0 | 0.0 | 0.00 | 0.00 | 0.00 | 84 | 1019.0 | |
| 20260506143617 | 53 | 0.0 | 0.9 | 0.00 | 0.00 | 0.00 | 84 | 1018.6 | |
| 20260506142630 | 53 | 0.0 | 0.0 | 0.00 | 0.00 | 0.00 | |||
| 20260506142513 | 0 | 0.0 | 0.0 | 0.00 | 0.00 | 0.00 | |||
| 20260506141537 | 0 | 0.0 | 0.0 | 0.00 | 0.00 | 0.00 | |||
| 20260506140615 | 0 | 0.0 | 0.0 | 0.00 | 0.00 | 0.00 | |||
| 20260506140459 | 0 | 0.0 | 0.0 | 0.00 | 0.00 | 0.00 | |||
| 20260506140356 | 0 | 0.0 | 0.0 | 0.00 | 0.00 | 0.00 | |||
| 20260506140219 | 0 | 0.0 | 0.0 | 0.00 | 0.00 | 0.00 | |||
| 20260506140117 | 0 | 0.0 | 0.0 | 0.00 | 0.00 | 0.00 | |||
| 20260506135940 | 0 | 0.0 | 0.0 | 0.00 | 0.00 | 0.00 | |||
| 20260506135806 | 0 | 0.0 | 0.0 | 0.00 | 0.00 | 0.00 | |||
| 20260506135038 | 0 | 0.0 | 0.0 | 0.00 | 0.00 | 0.00 | |||
| 20260506134100 | 0 | 0.0 | 0.0 | 0.00 | 0.00 | 0.00 | |||
| 20260506134003 | 0 | 0.0 | 0.0 | 0.00 | 0.00 | 0.00 | |||
| 20260506133806 | 0 | 0.0 | 0.0 | 0.00 | 0.00 | 0.00 | |||
| 20260506133649 | 0 | 0.0 | 0.0 | 0.00 | 0.00 | 0.00 | |||
| 20260506133532 | 0 | 0.0 | 0.0 | 0.00 | 0.00 | 0.00 | |||
| 20260506133358 | 0 | 0.0 | 0.0 | 0.00 | 0.00 | 0.00 | |||
| 20260506132617 | 0 | 0.0 | 0.0 | 0.00 | 0.00 | 0.00 | |||
| 20260506131651 | 0 | 0.0 | 0.0 | 0.00 | 0.00 | 0.00 | |||
| 20260506131535 | 0 | 0.0 | 0.0 | 0.00 | 0.00 | 0.00 | |||
| 20260506131418 | 0 | 0.0 | 0.0 | 0.00 | 0.00 | 0.00 | |||
| 20260506131315 | 0 | 0.0 | 0.0 | 0.00 | 0.00 | 0.00 | |||
| 20260506131133 | 0 | 0.0 | 0.0 | 0.00 | 0.00 | 0.00 | |||
| 20260506131017 | 0 | 0.0 | 0.0 | 0.00 | 0.00 | 0.00 | |||
| 20260506130815 | 0 | 0.0 | 0.0 | 0.00 | 0.00 | 0.00 | |||
| 20260506130017 | 0 | 0.0 | 0.0 | 0.00 | 0.00 | 0.00 | |||
| 20260506125053 | 0 | 0.0 | 0.0 | 0.00 | 0.00 | 0.00 | |||
| 20260506124936 | 0 | 0.0 | 0.0 | 0.00 | 0.00 | 0.00 | |||
| 20260506124831 | 0 | 0.0 | 0.0 | 0.00 | 0.00 | 0.00 | |||
| 20260506124708 | 0 | 0.0 | 0.0 | 0.00 | 0.00 | 0.00 | |||
| 20260506124545 | 0 | 0.0 | 0.0 | 0.00 | 0.00 | 0.00 | |||
| 20260506124408 | 0 | 0.0 | 0.0 | 0.00 | 0.00 | 0.00 | |||
| 20260506123518 | 0 | 0.0 | 0.0 | 0.00 | 0.00 | 0.00 | |||
| 20260506122608 | 0 | 0.0 | 0.0 | 0.00 | 0.00 | 0.00 | 84 | ||
| 20260506122451 | 0 | 0.0 | 0.0 | 0.00 | 0.00 | 0.00 | 84 | ||
| 20260506122348 | 0 | 0.0 | 0.0 | 0.00 | 0.00 | 0.00 | 84 | ||
| 20260506122211 | 0 | 0.0 | 0.0 | 0.00 | 0.00 | 0.00 | 84 | ||
| 20260506122108 | 0 | 0.0 | 0.0 | 0.00 | 0.00 | 0.00 | 84 | ||
| 20260506121932 | 0 | 0.0 | 0.0 | 0.00 | 0.00 | 0.00 | 84 | ||
| 20260506121816 | 0 | 229 | 0.9 | 0.0 | 0.00 | 0.00 | 0.00 | 84 | |
| 20260506120817 | 53 | 0.0 | 0.0 | 0.00 | 0.00 | 0.00 | 84 | 1018.0 | |
| 20260506115817 | 53 | 0.0 | 1.7 | 0.00 | 0.00 | 0.00 | 84 | 1017.9 | |
| 20260506114817 | 53 | 225 | 0.9 | 1.7 | 0.00 | 0.00 | 0.00 | 84 | 1017.6 |
| 20260506113817 | 53 | 225 | 0.9 | 1.7 | 0.00 | 0.00 | 0.00 | 84 | 1017.7 |
| 20260506112817 | 53 | 225 | 0.9 | 1.7 | 0.00 | 0.00 | 0.00 | 85 | 1017.8 |
| 20260506111817 | 53 | 0.0 | 0.0 | 0.00 | 0.00 | 0.00 | 85 | 1017.8 | |
| 20260506110857 | 53 | 0.0 | 0.9 | 0.00 | 0.00 | 0.00 | 85 | 1017.5 | |
| 20260506105819 | 53 | 225 | 1.7 | 2.6 | 0.00 | 0.00 | 0.00 | 85 | 1017.5 |
| 20260506104837 | 53 | 0.0 | 0.0 | 0.00 | 0.00 | 0.00 | 85 | 1017.5 | |
| 20260506103817 | 53 | 0.0 | 0.0 | 0.00 | 0.00 | 0.00 | 85 | 1017.4 | |
| 20260506102818 | 53 | 0.0 | 0.9 | 0.00 | 0.00 | 0.00 | 85 | 1017.3 | |
| 20260506101816 | 53 | 0.0 | 0.9 | 0.00 | 0.00 | 0.00 | 85 | 1017.2 | |
| 20260506100817 | 53 | 225 | 0.9 | 2.6 | 0.00 | 0.00 | 0.00 | 85 | 1017.1 |
| 20260506095816 | 53 | 0.0 | 0.0 | 0.00 | 0.00 | 0.00 | 85 | 1017.0 | |
| 20260506094817 | 53 | 225 | 0.9 | 1.7 | 0.00 | 0.00 | 0.00 | 85 | 1016.8 |
| 20260506093820 | 53 | 0.0 | 0.0 | 0.00 | 0.00 | 0.00 | 85 | 1016.9 | |
| 20260506092817 | 53 | 0.0 | 0.9 | 0.00 | 0.00 | 0.00 | 85 | 1016.8 | |
| 20260506091817 | 53 | 0.0 | 0.9 | 0.00 | 0.00 | 0.00 | 85 | 1016.8 | |
| 20260506090817 | 53 | 0.0 | 0.0 | 0.00 | 0.00 | 0.00 | 85 | 1016.8 | |
| 20260506085837 | 53 | 0.0 | 0.9 | 0.00 | 0.00 | 0.00 | 85 | 1016.7 | |
| 20260506084816 | 53 | 0.0 | 0.9 | 0.00 | 0.00 | 0.00 | 85 | 1016.7 | |
| 20260506083816 | 53 | 203 | 0.9 | 1.7 | 0.00 | 0.00 | 0.00 | 85 | 1016.6 |
| 20260506082816 | 53 | 0.0 | 0.9 | 0.00 | 0.00 | 0.00 | 85 | 1016.5 | |
| 20260506081817 | 53 | 0.0 | 0.0 | 0.00 | 0.00 | 0.00 | 85 | 1016.5 | |
| 20260506080816 | 53 | 225 | 0.9 | 0.9 | 0.00 | 0.00 | 0.00 | 85 | 1016.5 |
| 20260506072817 | 54 | 0.0 | 0.0 | 0.00 | 0.00 | 0.00 | 85 | 1016.1 | |
| 20260506071856 | 54 | 225 | 0.9 | 1.7 | 0.00 | 0.00 | 0.00 | 85 | 1016.1 |
| 20260506070837 | 54 | 0.0 | 0.0 | 0.00 | 0.00 | 0.00 | 85 | 1016.0 |